• Join FlightAware (Why Join?)
  • Login
  • US Flag 
05:54PM EST


 

Airport Tracker/Info


-or-


 

Live Flight TrackerFlight Track Log ✈ EGF3242 ✈ 22-Jul-2013 ✈ KDFW - KBTR

Flight Track Log - Related Links

Times and Time Zones

All times are in EDT time to prevent confusion due to time zone crossing. See the EGF3242 flight status page for this flight to view local times or setup timezone preferences in your user account.

Time Position Orientation Groundspeed Altitude Reporting Facility
EDT Latitude Longitude Course Direction KTS MPH feet Rate Location/Type
07:22AM 32.8833 -97.0333 77° East 145 167 1,100  Level Dallas / Fort Worth TRACON
07:23AM 32.8333 -97.0333 180° South 195 224 3,000 1,750 Climbing Dallas / Fort Worth TRACON
07:24AM 32.7833 -97.0167 164° South 241 277 4,600 1,722 Climbing Dallas / Fort Worth TRACON
07:25AM 32.6833 -96.8495 90° East  Level FlightAware Approximate
07:25AM 32.7667 -96.9167 101° East 289 333 6,300  Level Dallas / Fort Worth TRACON
07:26AM 32.6949 -96.7218 77° East  Level FlightAware Approximate
07:27AM 32.7186 -96.5955 77° East  Level FlightAware Approximate
07:27AM 32.7733 -96.7611 87° East 286 329 9,900  Level Fort Worth Center
07:28AM 32.7706 -96.6475 92° East 300 345 11,200 1,150 Climbing Fort Worth Center
07:29AM 32.7656 -96.5464 93° East 325 374 12,200 1,300 Climbing Fort Worth Center
07:30AM 32.7628 -96.4178 91° East 348 400 13,800 1,500 Climbing Fort Worth Center
07:31AM 32.7597 -96.3142 92° East 348 400 15,200 1,550 Climbing Fort Worth Center
07:32AM 32.7397 -96.1908 101° East 348 400 16,900 1,500 Climbing Fort Worth Center
07:33AM 32.7219 -96.0875 102° East 348 400 18,200 1,200 Climbing Fort Worth Center
07:34AM 32.7019 -95.9617 101° East 357 411 19,300 1,000 Climbing Fort Worth Center
07:35AM 32.6861 -95.8583 100° East 357 411 20,200 1,100 Climbing Fort Worth Center
07:36AM 32.6656 -95.7281 101° East 357 411 21,500 1,200 Climbing Fort Worth Center
07:37AM 32.6578 -95.6144 95° East 369 425 22,600 1,000 Climbing Fort Worth Center
07:38AM 32.6625 -95.5158 87° East 369 425 23,500 1,150 Climbing Fort Worth Center
07:39AM 32.6769 -95.3697 83° East 369 425 24,900 1,300 Climbing Fort Worth Center
07:40AM 32.6792 -95.2464 89° East 369 425 26,100 1,150 Climbing Fort Worth Center
07:41AM 32.6872 -95.1228 86° East 369 425 27,200 1,100 Climbing Fort Worth Center
07:42AM 32.6975 -95.0017 84° East 369 425 28,300 1,250 Climbing Fort Worth Center
07:43AM 32.7056 -94.8803 85° East 363 418 29,700 1,300 Climbing Fort Worth Center
07:44AM 32.7011 -94.7594 92° East 363 418 30,900 650 Climbing Fort Worth Center
07:45AM 32.6486 -94.6450 119° Southeast 363 418 31,000 50 Climbing Fort Worth Center
07:46AM 32.5792 -94.5339 127° Southeast 384 442 31,000  Level Fort Worth Center
07:47AM 32.5075 -94.4131 125° Southeast 420 483 31,000  Level Fort Worth Center
07:48AM 32.4397 -94.2922 124° Southeast 435 501 31,000  Level Fort Worth Center
07:49AM 32.3678 -94.1692 125° Southeast 448 516 31,000  Level Fort Worth Center
07:50AM 32.2958 -94.0489 125° Southeast 453 521 31,000  Level Fort Worth Center
07:51AM 32.2256 -93.9264 124° Southeast 453 521 31,000  Level Fort Worth Center
07:53AM 32.0933 -93.7025 125° Southeast 458 527 31,000  Level Houston Center
07:54AM 32.0194 -93.5769 125° Southeast 453 521 31,000  Level Houston Center
07:55AM 31.9469 -93.4536 125° Southeast 458 527 31,000  Level Houston Center
07:56AM 31.8744 -93.3328 125° Southeast 454 522 31,000  Level Houston Center
07:57AM 31.7964 -93.2022 125° Southeast 459 528 31,000  Level Houston Center
07:58AM 31.7233 -93.0811 125° Southeast 455 524 31,000  Level Houston Center
07:59AM 31.6503 -92.9581 125° Southeast 458 527 31,000 -934 Level Houston Center
08:00AM 31.5761 -92.8361 126° Southeast 459 528 29,100 -2,164 Descending Houston Center
08:01AM 31.4997 -92.7108 126° Southeast 469 540 26,600 -2,459 Descending Houston Center
08:02AM 31.4256 -92.5875 125° Southeast 464 534 24,100 -2,341 Descending Houston Center
08:03AM 31.3539 -92.4683 125° Southeast 459 528 21,800 -2,390 Descending Houston Center
08:04AM 31.2803 -92.3514 126° Southeast 439 505 19,200 -2,459 Descending Houston Center
08:05AM 31.2133 -92.2411 125° Southeast 422 486 16,800 -2,213 Descending Houston Center
08:06AM 31.1475 -92.1347 126° Southeast 409 471 14,700 -1,756 Descending Houston Center
08:07AM 31.0814 -92.0272 126° Southeast 408 470 13,200 -1,561 Descending Houston Center
08:08AM 31.0044 -91.9025 126° Southeast 398 458 11,500 -1,082 Descending Houston Center
08:09AM 30.9506 -91.8003 122° Southeast 377 434 11,000 -246 Descending Houston Center
08:10AM 30.9092 -91.6925 114° Southeast 368 423 11,000 -537 Level Houston Center
08:11AM 30.8689 -91.5967 116° Southeast 338 389 9,900 -1,366 Descending Houston Center
08:12AM 30.8344 -91.5086 114° Southeast 308 354 8,200 -1,672 Descending Houston Center
08:13AM 30.8000 -91.4231 115° Southeast 296 341 6,500 -1,659 Descending Houston Center
08:14AM 30.7683 -91.3403 114° Southeast 285 328 4,800 -1,463 Descending Houston Center
08:15AM 30.7311 -91.2467 115° Southeast 278 320 3,500 -1,279 Descending Houston Center